Weather History for Washington, NC

Change the Weather History Date:

Tuesday, May 28, 2013

  Actual Average (KEWN) Record (KEWN)
Temperature  
Mean Temperature 71 °F 73 °F  
Max Temperature 83 °F 83 °F 93 °F (2004)
Min Temperature 59 °F 62 °F 42 °F (1961)
Degree Days  
Heating Degree Days 0 0  
Month to date heating degree days 32  
Since 1 July heating degree days 2699  
Cooling Degree Days 6 8  
Month to date cooling degree days 148  
Year to date cooling degree days 218  
Growing Degree Days 21 (Base 50)    
Moisture  
Dew Point 58 °F    
Average Humidity 62    
Maximum Humidity 80    
Minimum Humidity 41    
Precipitation  
Precipitation 0.00 in 0.14 in 1.25 in (1960)
Month to date precipitation 3.70  
Year to date precipitation 18.94  
Snow  
Snow 0.00 in - - ()
Month to date snowfall  
Since 1 July snowfall  
Snow Depth -    
Sea Level Pressure  
Sea Level Pressure 30.24 in    
Wind  
Wind Speed 4 mph (South)    
Max Wind Speed 10 mph    
Max Gust Speed 17 mph    
Visibility 10 miles    
Events      
T = Trace of Precipitation, MM = Missing Value Source: NWS Daily Summary

Daily Weather History Graph

Daily Weather History Graph

Search for Another Location

Airport:

Trip Planner

Search our weather history database for the weather conditions in past years. The results will help you decide how hot, cold, wet, or windy it might be!

Date:

Astronomy

May. 28, 2013 Rise Set
Actual Time 5:55 AM EDT 8:16 PM EDT
Civil Twilight 5:26 AM EDT 8:45 PM EDT
Nautical Twilight 4:50 AM EDT 9:21 PM EDT
Astronomical Twilight 4:10 AM EDT 10:00 PM EDT
Moon 11:42 PM EDT (5/28) 9:38 AM EDT (5/28)
Length of Visible Light 15h 19m
Length of Day
14h 20m
Waning Gibbous, 83% of the Moon is Illuminated
May 28
Waning Gibbous
May 31
Last Quarter
Jun 8
New
Jun 16
First Quarter
Jun 23
Full

Hourly Weather History & Observations

Time (EDT) Temp. Heat Index Dew Point Humidity Pressure Visibility Wind Dir Wind Speed Gust Speed Precip Events Conditions
12:15 AM 65.5 °F - 52.0 °F 62% 30.26 in 10.0 mi South 4.6 mph - N/A   Clear
12:35 AM 65.5 °F - 53.1 °F 64% 30.26 in 10.0 mi Calm Calm - N/A   Clear
12:55 AM 64.4 °F - 53.2 °F 67% 30.26 in 10.0 mi Calm Calm - N/A   Clear
1:15 AM 64.4 °F - 54.3 °F 70% 30.26 in 10.0 mi South 3.5 mph - N/A   Clear
1:35 AM 64.4 °F - 55.0 °F 72% 30.25 in 10.0 mi Calm Calm - N/A   Clear
1:55 AM 63.5 °F - 54.9 °F 73% 30.24 in 10.0 mi SSE 3.5 mph - N/A   Clear
2:15 AM 63.5 °F - 55.0 °F 74% 30.24 in 10.0 mi Calm Calm - N/A   Clear
2:35 AM 63.5 °F - 55.4 °F 75% 30.24 in 10.0 mi SSE 3.5 mph - N/A   Clear
2:55 AM 63.0 °F - 55.9 °F 78% 30.24 in 10.0 mi Calm Calm - N/A   Clear
3:15 AM 63.0 °F - 56.1 °F 78% 30.24 in 10.0 mi Calm Calm - N/A   Clear
3:35 AM 63.0 °F - 56.3 °F 79% 30.23 in 10.0 mi Calm Calm - N/A   Clear
3:55 AM 63.0 °F - 56.3 °F 79% 30.23 in 10.0 mi SE 4.6 mph - N/A   Clear
4:15 AM 63.0 °F - 56.7 °F 80% 30.22 in 10.0 mi SSE 4.6 mph - N/A   Clear
4:35 AM 63.0 °F - 56.7 °F 80% 30.22 in 10.0 mi SSE 3.5 mph - N/A   Clear
4:55 AM 63.0 °F - 56.5 °F 79% 30.22 in 10.0 mi Calm Calm - N/A   Clear
5:15 AM 60.4 °F - 54.1 °F 80% 30.23 in 10.0 mi Calm Calm - N/A   Clear
5:35 AM 60.4 °F - 54.1 °F 80% 30.23 in 10.0 mi Calm Calm - N/A   Clear
5:55 AM 60.4 °F - 54.1 °F 80% 30.23 in 10.0 mi Calm Calm - N/A   Clear
6:15 AM 60.4 °F - 54.1 °F 80% 30.25 in 10.0 mi Calm Calm - N/A   Clear
6:35 AM 59.9 °F - 53.8 °F 80% 30.25 in 10.0 mi Calm Calm - N/A   Clear
6:55 AM 60.4 °F - 54.1 °F 80% 30.26 in 10.0 mi Calm Calm - N/A   Clear
7:15 AM 61.0 °F - 54.7 °F 80% 30.27 in 10.0 mi Calm Calm - N/A   Clear
7:35 AM 64.2 °F - 57.6 °F 79% 30.27 in 10.0 mi Calm Calm - N/A   Clear
7:55 AM 66.4 °F - 59.7 °F 79% 30.27 in 10.0 mi Calm Calm - N/A   Clear
8:15 AM 68.0 °F - 61.0 °F 78% 30.28 in 10.0 mi SE 3.5 mph - N/A   Clear
8:35 AM 71.2 °F - 63.0 °F 75% 30.28 in 10.0 mi South 4.6 mph - N/A   Clear
8:55 AM 73.0 °F - 62.8 °F 70% 30.28 in 10.0 mi South 5.8 mph - N/A   Clear
9:15 AM 73.0 °F - 61.9 °F 68% 30.28 in 10.0 mi South 5.8 mph - N/A   Clear
9:35 AM 74.3 °F - 61.7 °F 65% 30.28 in 10.0 mi South 4.6 mph - N/A   Clear
9:55 AM 75.4 °F - 61.0 °F 61% 30.28 in 10.0 mi South 5.8 mph - N/A   Clear
10:15 AM 75.9 °F - 61.5 °F 61% 30.29 in 10.0 mi SSW 5.8 mph - N/A   Clear
10:35 AM 78.1 °F - 62.2 °F 58% 30.27 in 10.0 mi South 6.9 mph - N/A   Clear
10:55 AM 78.1 °F - 60.1 °F 54% 30.27 in 10.0 mi SW 9.2 mph - N/A   Clear
11:15 AM 78.1 °F - 56.3 °F 47% 30.28 in 10.0 mi SW 10.4 mph - N/A   Clear
11:35 AM 78.1 °F - 57.2 °F 49% 30.29 in 10.0 mi SW 5.8 mph - N/A   Clear
11:55 AM 79.7 °F - 58.5 °F 48% 30.28 in 10.0 mi WSW 5.8 mph - N/A   Clear
12:15 PM 78.4 °F - 55.2 °F 45% 30.28 in 10.0 mi SW 6.9 mph - N/A   Clear
12:35 PM 80.8 °F 81.0 °F 57.6 °F 45% 30.27 in 10.0 mi SW 8.1 mph - N/A   Clear
12:55 PM 80.8 °F 81.0 °F 57.6 °F 45% 30.27 in 10.0 mi SW 6.9 mph 17.3 mph N/A   Clear
1:15 PM 80.8 °F 81.0 °F 57.7 °F 45% 30.26 in 10.0 mi SW 5.8 mph - N/A   Clear
1:35 PM 80.8 °F 81.1 °F 58.1 °F 46% 30.26 in 10.0 mi South 10.4 mph - N/A   Clear
1:55 PM 80.8 °F 80.8 °F 56.5 °F 43% 30.25 in 10.0 mi South 8.1 mph - N/A   Clear
2:15 PM 81.0 °F 80.9 °F 56.7 °F 43% 30.24 in 10.0 mi South 9.2 mph - N/A   Scattered Clouds
2:35 PM 83.3 °F 82.8 °F 57.2 °F 41% 30.23 in 10.0 mi SSW 6.9 mph - N/A   Scattered Clouds
2:55 PM 83.3 °F 83.1 °F 58.5 °F 43% 30.22 in 10.0 mi SW 4.6 mph - N/A   Clear
3:15 PM 83.3 °F 83.1 °F 58.6 °F 43% 30.21 in 10.0 mi SSW 8.1 mph - N/A   Scattered Clouds
3:35 PM 82.8 °F 82.2 °F 56.8 °F 41% 30.21 in 10.0 mi SSW 8.1 mph - N/A   Scattered Clouds
3:55 PM 83.3 °F 82.9 °F 58.1 °F 42% 30.21 in 10.0 mi South 8.1 mph - N/A   Scattered Clouds
4:15 PM 83.3 °F 82.8 °F 57.2 °F 41% 30.20 in 10.0 mi SSW 9.2 mph - N/A   Scattered Clouds
4:35 PM 83.3 °F 82.8 °F 57.2 °F 41% 30.20 in 10.0 mi SSW 8.1 mph - N/A   Scattered Clouds
4:55 PM 83.5 °F 83.2 °F 58.6 °F 43% 30.20 in 10.0 mi South 6.9 mph - N/A   Scattered Clouds
5:15 PM 83.3 °F 83.2 °F 59.4 °F 44% 30.20 in 10.0 mi South 5.8 mph - N/A   Mostly Cloudy
5:35 PM 83.3 °F 83.7 °F 61.2 °F 47% 30.20 in 10.0 mi SSE 9.2 mph - N/A   Scattered Clouds
5:55 PM 82.2 °F 82.7 °F 61.0 °F 48% 30.19 in 10.0 mi South 6.9 mph - N/A   Scattered Clouds
6:15 PM 81.0 °F 81.5 °F 59.5 °F 48% 30.19 in 10.0 mi South 10.4 mph - N/A   Clear
6:35 PM 81.0 °F 81.2 °F 58.5 °F 46% 30.19 in 10.0 mi South 9.2 mph - N/A   Clear
6:55 PM 80.8 °F 81.0 °F 57.7 °F 45% 30.19 in 10.0 mi South 9.2 mph - N/A   Clear
7:15 PM 80.8 °F 81.0 °F 57.6 °F 45% 30.19 in 10.0 mi South 8.1 mph - N/A   Clear
7:35 PM 80.8 °F 80.8 °F 56.7 °F 43% 30.19 in 10.0 mi South 8.1 mph - N/A   Clear
7:55 PM 79.0 °F - 54.0 °F 42% 30.19 in 10.0 mi South 8.1 mph - N/A   Clear
8:15 PM 78.1 °F - 53.8 °F 43% 30.19 in 10.0 mi South 9.2 mph - N/A   Clear
8:35 PM 78.1 °F - 60.3 °F 54% 30.20 in 10.0 mi SSE 8.1 mph - N/A   Clear
8:55 PM 78.1 °F - 64.9 °F 64% 30.20 in 10.0 mi South 8.1 mph - N/A   Clear
9:15 PM 74.3 °F - 63.5 °F 69% 30.20 in 10.0 mi South 9.2 mph - N/A   Clear
9:35 PM 73.0 °F - 63.5 °F 72% 30.21 in 10.0 mi South 9.2 mph - N/A   Clear
9:55 PM 73.0 °F - 64.4 °F 74% 30.21 in 10.0 mi South 6.9 mph - N/A   Clear
10:15 PM 73.0 °F - 64.6 °F 75% 30.22 in 10.0 mi South 5.8 mph - N/A   Clear
10:35 PM 73.0 °F - 65.1 °F 76% 30.22 in 10.0 mi South 8.1 mph - N/A   Clear
10:55 PM 73.0 °F - 65.3 °F 77% 30.22 in 10.0 mi South 4.6 mph - N/A   Clear
11:15 PM 73.0 °F - 65.8 °F 78% 30.22 in 10.0 mi SSE 4.6 mph - N/A   Clear
11:35 PM 72.5 °F - 65.5 °F 79% 30.22 in 10.0 mi South 3.5 mph - N/A   Clear
11:55 PM 70.7 °F - 63.9 °F 79% 30.21 in 10.0 mi South 4.6 mph - N/A   Clear